Simultaneous Nadir Overpasses (SNOs) Predictions

Prediction of SNOs between NOAA-19 and TERRA Satellite Orbit:

Table of predicted SNOs for the next 14.0 days since TLE Epoch: 7/2/2022
Index Date (NOAA-19) Time (NOAA-19) Lat,Lon (NOAA-19) SZA (NOAA-19 ) Date (TERRA) Time (TERRA) Lat,Lon (TERRA) SZA (TERRA ) Distance(km) Time Diff (sec)
1 07/02/2022 08:20:13 -80.81, -89.32 120.51 07/02/2022 08:20:34 -80.79, -89.29 120.51 1.85 21
2 07/04/2022 13:53:12 80.80, 7.62 59.69 07/04/2022 13:54:12 80.82, 7.57 59.71 1.55 60
3 07/04/2022 14:44:07 -80.80, 175.11 120.30 07/04/2022 14:43:39 -80.81, 175.14 120.30 1.34 28
4 07/06/2022 20:17:07 80.81, -88.50 59.89 07/06/2022 20:17:18 80.80, -88.39 59.89 2.19 11
5 07/09/2022 01:49:58 -80.81, 8.35 119.87 07/09/2022 01:50:57 -80.81, 8.32 119.85 0.68 59
6 07/09/2022 02:41:00 80.80, 176.07 60.17 07/09/2022 02:40:23 80.81, 175.96 60.16 2.54 37
7 07/11/2022 08:13:53 -80.81, -87.67 119.60 07/11/2022 08:14:03 -80.79, -87.69 119.61 1.92 10
8 07/13/2022 13:46:50 80.81, 9.16 60.72 07/13/2022 13:47:40 80.83, 9.30 60.77 3.32 50
9 07/13/2022 14:37:47 -80.81, 176.65 119.26 07/13/2022 14:37:08 -80.80, 176.61 119.29 0.85 39



Historial Predications of SNOs between NOAA-19 and TERRA
